Christchurch, New Zealand

6:18 PM NZST on August 22, 2017 (GMT +1200)
Christchurch International

Weather History for NZCH - April, 2013

Change the Weather History Date:

Friday, April 19, 2013

  Actual Average Record
Temperature  
Mean Temperature 52 °F -  
Max Temperature 57 °F 57 °F 68 °F (2006)
Min Temperature 46 °F 39 °F 33 °F (1998)
Degree Days  
Heating Degree Days 14    
Growing Degree Days 2 (Base 50)    
Moisture  
Dew Point 47 °F    
Average Humidity 85    
Maximum Humidity 94    
Minimum Humidity 67    
Precipitation  
Precipitation 0.00 in - - ()
Sea Level Pressure  
Sea Level Pressure 29.98 in    
Wind  
Wind Speed 4 mph ()    
Max Wind Speed 12 mph    
Max Gust Speed -    
Visibility 6.2 miles    
Events Rain    
Averages and records for this station are not official NWS values.
T = Trace of Precipitation, MM = Missing Value Source: Averaged Metar Reports

Daily Weather History Graph

Daily Weather History Graph

Search for Another Location

Airport or City:

Trip Planner

Search our weather history database for the weather conditions in past years. The results will help you decide how hot, cold, wet, or windy it might be!

Date:

Astronomy

Apr. 19, 2013 Rise Set
Actual Time 7:07 AM NZST 5:50 PM NZST
Civil Twilight 6:37 AM NZST 6:19 PM NZST
Nautical Twilight 6:04 AM NZST 6:52 PM NZST
Astronomical Twilight 5:31 AM NZST 7:25 PM NZST
Moon 2:01 PM NZST (4/19) No Moon Set
Length of Visible Light 11h 41m
Length of Day
10h 43m
First Quarter, 55% of the Moon is Illuminated
Apr 19
First Quarter
Apr 26
Full
May 2
Last Quarter
May 10
New
May 18
First Quarter

Hourly Weather History & Observations

Time (NZST) Temp. Windchill Dew Point Humidity Pressure Visibility Wind Dir Wind Speed Gust Speed Precip Events Conditions
12:00 AM 46.4 °F 44.3 °F 44.6 °F 93% 29.92 in 6.2 mi West 4.6 mph - N/A   Scattered Clouds
1:00 AM 48.2 °F - 46.4 °F 93% 29.92 in 6.2 mi WNW 3.5 mph - N/A   Mostly Cloudy
2:00 AM 50.0 °F - 46.4 °F 87% 29.92 in 6.2 mi West 3.5 mph - N/A   Mostly Cloudy
3:00 AM 48.2 °F - 46.4 °F 93% 29.92 in 6.2 mi West 2.3 mph - N/A   Mostly Cloudy
4:00 AM 50.0 °F - 48.2 °F 94% 29.92 in 6.2 mi West 4.6 mph - N/A   Partly Cloudy
5:00 AM 50.0 °F - 48.2 °F 94% 29.92 in 6.2 mi West 3.5 mph - N/A   Mostly Cloudy
6:00 AM 48.2 °F - 46.4 °F 93% 29.92 in 6.2 mi South 3.5 mph - N/A   Mostly Cloudy
7:00 AM 50.0 °F - 46.4 °F 87% 29.95 in 6.2 mi West 2.3 mph - N/A   Mostly Cloudy
8:00 AM 50.0 °F - 48.2 °F 94% 29.95 in 6.2 mi West 1.2 mph - N/A   Mostly Cloudy
9:00 AM 51.8 °F - 48.2 °F 88% 29.98 in 6.2 mi WSW 3.5 mph - N/A   Mostly Cloudy
10:00 AM 53.6 °F - 46.4 °F 77% 29.98 in 6.2 mi SSW 4.6 mph - N/A   Mostly Cloudy
11:00 AM 55.4 °F - 46.4 °F 72% 29.98 in 6.2 mi South 3.5 mph - N/A   Mostly Cloudy
12:00 PM 55.4 °F - 46.4 °F 72% 29.98 in 6.2 mi South 4.6 mph - N/A   Mostly Cloudy
1:00 PM 57.2 °F - 46.4 °F 67% 29.98 in 6.2 mi South 8.1 mph - N/A   Mostly Cloudy
2:00 PM 55.4 °F - 46.4 °F 72% 29.98 in 6.2 mi South 10.4 mph - N/A   Mostly Cloudy
3:00 PM 55.4 °F - 46.4 °F 72% 29.98 in 6.2 mi South 10.4 mph - N/A   Mostly Cloudy
4:00 PM 53.6 °F - 46.4 °F 77% 29.98 in 6.2 mi South 11.5 mph - N/A   Mostly Cloudy
5:00 PM 53.6 °F - 46.4 °F 77% 30.01 in 6.2 mi South 11.5 mph - N/A   Mostly Cloudy
6:00 PM 51.8 °F - 46.4 °F 82% 30.01 in 6.2 mi South 10.4 mph - N/A   Scattered Clouds
7:00 PM 51.8 °F - 46.4 °F 82% 30.04 in 6.2 mi SSW 6.9 mph - N/A   Scattered Clouds
8:00 PM 50.0 °F - 48.2 °F 94% 30.04 in 6.2 mi South 5.8 mph - N/A Rain Light Rain
9:00 PM 50.0 °F - 48.2 °F 94% 30.04 in 6.2 mi SSW 4.6 mph - N/A Rain Light Rain
10:00 PM 50.0 °F - 48.2 °F 94% 30.06 in 6.2 mi SSW 4.6 mph - N/A Rain Light Rain
11:00 PM 50.0 °F - 48.2 °F 94% 30.06 in 6.2 mi SSW 4.6 mph - N/A Rain Light Rain